Simultaneous Nadir Overpasses (SNOs) Predictions

Prediction of SNOs between GOES-17 and METOP-B Satellite Orbit:

Table of predicted SNOs for the next 14.0 days since TLE Epoch: 5/18/2024
Index Date Time (GOES-17) GOES-17 Lat,Lon METOP-B Lat,Lon Distance(km) Time Diff (sec)
1 05/19/2024 04:09:38 -0.01,-104.70 0.57,-102.11 295.00 80
2 05/20/2024 16:28:25 0.01,-104.71 0.46,-106.67 223.07 80
3 05/21/2024 16:10:24 0.01,-104.71 -0.68,-101.68 346.71 80
4 05/23/2024 04:29:20 -0.01,-104.71 -0.35,-106.27 177.59 80
5 05/24/2024 04:05:57 -0.00,-104.70 0.74,-101.26 391.73 80
6 05/25/2024 16:27:25 -0.00,-104.71 0.26,-105.82 127.21 80
7 05/26/2024 16:04:03 -0.01,-104.70 -0.90,-100.83 442.02 80
8 05/28/2024 04:25:39 0.02,-104.69 -0.17,-105.41 82.69 80
9 05/29/2024 04:02:17 0.03,-104.69 1.00,-100.42 486.60 80
10 05/30/2024 16:23:43 -0.03,-104.69 0.03,-104.97 31.98 80
